Location: Pornichet
(47.2613°N, 2.3364°W)
Time: 10:26:52
(UTC+02:00)

ISS - Visible Passes

Search period start: 15 May 2021 00:00
Search period end: 25 May 2021 00:00
Orbit: 417 x 422 km, 51.6° (Epoch: 15 May)

Date Brightness Start Highest point End Pass type
(mag) Time Alt. Az. Time Alt. Az. Time Alt. Az.
15 May -3.8 00:25:11 10° WSW 00:28:33 81° NNW 00:31:56 10° ENE visible
15 May -2.3 02:02:27 10° WNW 02:05:39 38° N 02:08:50 10° ENE visible
15 May -3.0 03:39:33 10° WNW 03:42:52 52° NNE 03:46:11 10° E visible
15 May -3.3 05:16:27 10° WNW 05:19:38 39° SW 05:22:49 10° SE visible
15 May -3.9 23:37:46 10° SW 23:41:06 72° SSE 23:44:28 10° ENE visible
16 May -2.5 01:14:52 10° W 01:18:06 41° N 01:21:19 10° ENE visible
16 May -2.6 02:52:05 10° WNW 02:55:20 43° N 02:58:36 10° E visible
16 May -3.8 04:28:55 10° WNW 04:32:15 60° SSW 04:35:35 10° SE visible
16 May -3.5 22:50:28 10° SW 22:53:42 47° SSE 22:56:57 10° ENE visible
17 May -2.8 00:27:16 10° W 00:30:32 48° NNW 00:33:50 10° ENE visible
17 May -2.3 02:04:35 10° WNW 02:07:47 39° N 02:10:59 10° ENE visible
17 May -3.9 03:41:26 10° WNW 03:45:02 78° SE 03:48:13 10° ESE visible
17 May -2.2 05:19:16 11° W 05:21:15 17° SW 05:23:30 10° S visible
17 May -3.2 23:39:41 10° W 23:43:01 60° NNW 23:46:23 10° ENE visible
18 May -2.2 01:17:02 10° WNW 01:20:12 37° N 01:22:52 13° ENE visible
18 May -2.2 02:53:59 10° WNW 02:55:46 28° NW 02:55:46 28° NW visible
18 May -3.7 22:52:10 10° WSW 22:55:32 81° NNW 22:58:54 10° ENE visible
19 May -2.3 00:29:27 10° WNW 00:32:37 38° N 00:35:49 10° ENE visible
19 May -2.8 02:06:31 10° WNW 02:09:22 47° NNW 02:09:22 47° NNW visible
19 May -2.4 23:41:50 10° W 23:45:03 41° N 23:48:17 10° ENE visible
20 May -2.6 01:19:02 10° WNW 01:22:17 44° N 01:23:11 34° NE visible
20 May -1.0 02:55:52 10° WNW 02:56:06 12° WNW 02:56:06 12° WNW visible
20 May -2.7 22:54:13 10° W 22:57:29 48° NNW 23:00:47 10° ENE visible
21 May -2.4 00:31:31 10° WNW 00:34:43 39° N 00:37:05 16° ENE visible
21 May -2.0 02:08:23 10° WNW 02:10:01 26° WNW 02:10:01 26° WNW visible
21 May -2.3 23:43:57 10° WNW 23:47:07 37° N 23:50:18 10° ENE visible
22 May -3.4 01:20:54 10° WNW 01:23:58 63° NNW 01:23:58 63° NNW visible
22 May -2.3 22:56:22 10° WNW 22:59:32 38° N 23:02:43 10° ENE visible
23 May -3.1 00:33:26 10° WNW 00:36:45 53° NNE 00:37:56 33° ENE visible
23 May -1.2 02:10:20 10° WNW 02:10:53 14° W 02:10:53 14° W visible
23 May -2.7 23:45:55 10° WNW 23:49:11 44° NNE 23:51:57 13° E visible
24 May -2.5 01:22:47 10° WNW 01:24:53 34° W 01:24:53 34° W visible
24 May -2.4 22:58:24 10° WNW 23:01:36 39° N 23:04:47 10° ENE visible
